Weather in Bolshiye Algashi

Russia / Chuvash Republic     55°21′40″N   46°27′14″E
temp.,
°C
wind,
m/s
gust,
m/s
humid.,
%
clouds,
%
prec.,
mm/h
press.,
hPa
HPBL,
m
10 april, sat
sat1000:00−1ne119378 0.0 102811
03:00−2e2295100 0.0 102931
06:00−2ene259887 0.0 1030146
09:00+2ene3586100 0.0 1029361
12:00+4ene4687100 0.1 1028518
15:00+2nne3998100 1.3 1028405
18:00+2ene3898100 0.9 1027348
21:00+1n2499100 1.1 1026146
11 april, sun
sun1100:00+1n2599100 0.0 1026167
03:00+1n2699100 0.6 1027201
06:00+2nnw3799100 0.1 1028290
09:00+2n3697100 0.2 1030274
12:00+6n3477100 0.0 1030470
15:00+7nne3472100 0.0 1032450
18:00+4nne2592100 0.0 1033156
21:00+3ne2695100 0.0 1034157
12 april, mon
mon1200:00+4ene2892100 0.2 1034211
03:00+3ne31085100 1.8 1035301
06:00+3ene31093100 3.5 1035319
09:00+6ene41093100 4.1 1035332
12:00+7e41094100 0.4 1034335
15:00+10e4685100 0.4 1034481
18:00+8e3793100 0.0 1033261
21:00+6e3896100 0.0 1033166
13 april, tue
tue1300:00+7ese3693100 0.0 1032105
03:00+7se2390100 0.0 103252
06:00+7sse259032 0.0 103176
09:00+13sse477392 0.0 1031302
12:00+16s4757100 0.0 1030781
15:00+17sse464672 0.0 10281165
18:00+13sse356658 0.0 102766
21:00+9sse387546 0.0 1028125
14 april, wed
wed1400:00+8sse34764 0.0 102746
03:00+7sse33780 0.0 102733
06:00+7sse23783 0.0 102651
09:00+13s35595 0.0 1026274
12:00+17s45475 0.0 1025722
15:00+18s344163 0.0 10231162
18:00+15sse235998 0.0 102232
21:00+11sse2266100 0.0 102215